Leominster, MA

4:25 AM EST on February 23, 2017 (GMT -0500)
Fitchburg Municipal

Weather History for KFIT - April, 2013

Change the Weather History Date:

Monday, April 29, 2013

  Actual Average (KORH) Record (KORH)
Temperature  
Mean Temperature 58 °F -  
Max Temperature 71 °F 60 °F 84 °F (1901)
Min Temperature 46 °F 40 °F 28 °F (1939)
Degree Days  
Heating Degree Days 8    
Growing Degree Days 8 (Base 50)    
Moisture  
Dew Point 33 °F    
Average Humidity 41    
Maximum Humidity 68    
Minimum Humidity 24    
Precipitation  
Precipitation 0.00 in - - ()
Sea Level Pressure  
Sea Level Pressure 30.24 in    
Wind  
Wind Speed 5 mph (South)    
Max Wind Speed 14 mph    
Max Gust Speed 21 mph    
Visibility 10 miles    
Events      
Averages and records for this station are not official NWS values.
T = Trace of Precipitation, MM = Missing Value Source: NWS Daily Summary

Daily Weather History Graph

Daily Weather History Graph

Search for Another Location

Airport or City:

Trip Planner

Search our weather history database for the weather conditions in past years. The results will help you decide how hot, cold, wet, or windy it might be!

Date:

Astronomy

Apr. 29, 2013 Rise Set
Actual Time 5:44 AM EDT 7:45 PM EDT
Civil Twilight 5:13 AM EDT 8:15 PM EDT
Nautical Twilight 4:36 AM EDT 8:53 PM EDT
Astronomical Twilight 3:55 AM EDT 9:34 PM EDT
Moon No Moon Rise 8:59 AM EDT (4/29)
Length of Visible Light 15h 01m
Length of Day
14h 00m
Waning Gibbous, 80% of the Moon is Illuminated
Apr 29
Waning Gibbous
May 2
Last Quarter
May 9
New
May 18
First Quarter
May 25
Full

Hourly Weather History & Observations

Time (EDT) Temp. Dew Point Humidity Pressure Visibility Wind Dir Wind Speed Gust Speed Precip Events Conditions
12:52 AM 52.0 °F 26.1 °F 37% 30.27 in 10.0 mi SSE 5.8 mph - N/A   Clear
1:52 AM 51.1 °F 28.0 °F 41% 30.26 in 10.0 mi SSE 5.8 mph - N/A   Clear
2:52 AM 48.9 °F 32.0 °F 52% 30.24 in 10.0 mi Calm Calm - N/A   Clear
3:52 AM 46.9 °F 33.1 °F 59% 30.24 in 10.0 mi Calm Calm - N/A   Clear
4:52 AM 46.0 °F 34.0 °F 63% 30.25 in 10.0 mi Calm Calm - N/A   Clear
5:52 AM 46.0 °F 35.1 °F 66% 30.25 in 10.0 mi Calm Calm - N/A   Clear
6:52 AM 48.0 °F 37.9 °F 68% 30.26 in 10.0 mi Calm Calm - N/A   Clear
7:52 AM 53.1 °F 41.0 °F 64% 30.27 in 10.0 mi SE 3.5 mph - N/A   Clear
8:52 AM 60.1 °F 44.1 °F 55% 30.27 in 10.0 mi Calm Calm - N/A   Clear
9:52 AM 62.1 °F 44.1 °F 52% 30.26 in 10.0 mi South 6.9 mph - N/A   Clear
10:52 AM 64.0 °F 39.0 °F 40% 30.25 in 10.0 mi WSW 4.6 mph - N/A   Clear
11:52 AM 64.9 °F 42.1 °F 43% 30.24 in 10.0 mi SSE 11.5 mph 16.1 mph N/A   Clear
12:52 PM 66.9 °F 35.1 °F 31% 30.22 in 10.0 mi SW 9.2 mph 18.4 mph N/A   Clear
1:52 PM 69.1 °F 36.0 °F 30% 30.21 in 10.0 mi SE 13.8 mph 20.7 mph N/A   Partly Cloudy
2:52 PM 69.1 °F 34.0 °F 27% 30.19 in 10.0 mi SSE 10.4 mph 18.4 mph N/A   Partly Cloudy
3:52 PM 69.1 °F 34.0 °F 27% 30.19 in 10.0 mi South 11.5 mph - N/A   Overcast
4:52 PM 66.9 °F 34.0 °F 30% 30.19 in 10.0 mi South 13.8 mph - N/A   Overcast
5:52 PM 64.9 °F 32.0 °F 29% 30.20 in 10.0 mi SW 10.4 mph - N/A   Overcast
6:52 PM 63.0 °F 28.9 °F 28% 30.22 in 10.0 mi South 8.1 mph - N/A   Overcast
7:52 PM 61.0 °F 26.1 °F 26% 30.23 in 10.0 mi South 8.1 mph - N/A   Overcast
8:52 PM 59.0 °F 24.1 °F 26% 30.25 in 10.0 mi SSW 5.8 mph - N/A   Overcast
9:52 PM 57.9 °F 21.9 °F 25% 30.26 in 10.0 mi SSW 4.6 mph - N/A   Overcast
10:52 PM 57.0 °F 19.9 °F 24% 30.26 in 10.0 mi Calm Calm - N/A   Overcast